TimeEST,TemperatureF,Dew PointF,Humidity,Sea Level PressureIn,VisibilityMPH,Wind Direction,Wind SpeedMPH,Gust SpeedMPH,PrecipitationIn,Events,Conditions,WindDirDegrees,DateUTC
12:54 AM,34.0,23.0,64,30.06,10.0,WNW,5.8,-,N/A,,Clear,300,2012-12-28 05:54:00
1:54 AM,33.1,23.0,66,30.07,10.0,WNW,5.8,-,N/A,,Clear,300,2012-12-28 06:54:00
2:54 AM,33.1,24.1,70,30.10,10.0,West,5.8,-,N/A,,Scattered Clouds,270,2012-12-28 07:54:00
3:54 AM,32.0,24.1,73,30.09,10.0,NW,4.6,-,N/A,,Mostly Cloudy,320,2012-12-28 08:54:00
4:54 AM,32.0,24.1,73,30.10,10.0,WNW,4.6,-,N/A,,Overcast,300,2012-12-28 09:54:00
5:54 AM,32.0,24.1,73,30.12,10.0,West,3.5,-,N/A,,Overcast,280,2012-12-28 10:54:00
6:54 AM,32.0,24.1,73,30.13,10.0,Calm,Calm,-,N/A,,Overcast,0,2012-12-28 11:54:00
7:54 AM,28.9,24.1,82,30.15,10.0,Calm,Calm,-,N/A,,Overcast,0,2012-12-28 12:54:00
8:54 AM,33.1,28.0,82,30.18,10.0,Calm,Calm,-,N/A,,Overcast,0,2012-12-28 13:54:00
9:54 AM,37.9,26.1,62,30.18,10.0,Calm,Calm,-,N/A,,Overcast,0,2012-12-28 14:54:00
10:54 AM,39.9,26.1,58,30.18,10.0,NE,4.6,-,N/A,,Overcast,50,2012-12-28 15:54:00
11:54 AM,43.0,26.1,51,30.16,10.0,Calm,Calm,-,N/A,,Overcast,0,2012-12-28 16:54:00
12:54 PM,43.0,27.0,53,30.12,10.0,Calm,Calm,-,N/A,,Overcast,0,2012-12-28 17:54:00
1:54 PM,43.0,26.1,51,30.12,10.0,WSW,5.8,-,N/A,,Overcast,250,2012-12-28 18:54:00
2:54 PM,44.1,27.0,51,30.11,10.0,Calm,Calm,-,N/A,,Overcast,0,2012-12-28 19:54:00
3:54 PM,45.0,27.0,49,30.10,10.0,WSW,3.5,-,N/A,,Overcast,240,2012-12-28 20:54:00
4:54 PM,44.1,26.1,49,30.10,10.0,Calm,Calm,-,N/A,,Mostly Cloudy,0,2012-12-28 21:54:00
5:54 PM,39.0,28.9,67,30.07,10.0,ESE,5.8,-,N/A,,Clear,110,2012-12-28 22:54:00
6:54 PM,39.9,28.0,63,30.09,10.0,Calm,Calm,-,N/A,,Overcast,0,2012-12-28 23:54:00
7:54 PM,37.9,28.9,70,30.10,10.0,SE,3.5,-,N/A,,Overcast,140,2012-12-29 00:54:00
8:54 PM,36.0,30.0,79,30.12,10.0,SE,3.5,-,N/A,,Overcast,140,2012-12-29 01:54:00
9:54 PM,36.0,30.9,82,30.09,10.0,ESE,4.6,-,N/A,,Overcast,120,2012-12-29 02:54:00
10:54 PM,37.0,30.0,76,30.07,10.0,SSE,5.8,-,N/A,,Overcast,160,2012-12-29 03:54:00
11:54 PM,37.9,30.9,76,30.05,10.0,SSE,3.5,-,N/A,,Overcast,150,2012-12-29 04:54:00